Location: Recife
(8.0585°S, 34.8848°W)
Time: 06:23:31
(UTC-03:00)

Envisat - Visible Passes

Search period start: 26 September 2021 00:00
Search period end: 06 October 2021 00:00
Orbit: 764 x 766 km, 98.2° (Epoch: 25 September)

Date Brightness Start Highest point End Pass type
(mag) Time Alt. Az. Time Alt. Az. Time Alt. Az.
26 Sep 3.1 03:56:45 10° NNE 04:01:49 79° ESE 04:06:54 10° S visible
27 Sep 5.0 03:20:51 10° NE 03:25:07 28° ESE 03:29:24 10° SSE visible
28 Sep 3.2 04:22:12 10° N 04:27:05 49° WNW 04:32:00 10° SSW visible
29 Sep 3.6 03:45:22 10° NNE 03:50:20 57° ESE 03:55:20 10° S visible
30 Sep 5.5 03:09:58 10° ENE 03:13:39 20° ESE 03:17:21 10° SSE visible
01 Oct 2.9 04:10:34 10° N 04:15:35 69° WNW 04:20:40 10° SSW visible
02 Oct 4.3 03:34:07 10° NNE 03:38:52 41° ESE 03:43:38 10° S visible
03 Oct 5.9 02:59:24 10° ENE 03:02:13 15° ESE 03:05:01 10° SE visible
03 Oct 3.7 04:36:23 10° NNW 04:40:53 33° W 04:45:25 10° SW visible
04 Oct 3.0 03:59:02 10° NNE 04:04:07 87° ESE 04:09:12 10° S visible
05 Oct 4.9 03:22:59 10° NE 03:27:24 30° ESE 03:31:49 10° SSE visible
